Terug naar catalogus

FENGYUN 1C DEB

ActiefPO
NORAD 31071·DEBRIS·🇨🇳 China

Gelanceerd May 10, 1999 vanaf Taiyuan Satellite Launch Center

Loading…

Volgende Passages (komende 24 uur)

TLE

VersSource: Space-Track

Epoch: Sep 13, 2026, 12:54 UTC

1 31071U 99025BFR 26256.53793314  .00002970  00000-0  69222-3 0  9995
2 31071  99.0353   0.7855 0055174 172.9298 187.2687 14.54730110694877

Volg FENGYUN 1C DEB in realtime met AllMySat

Download on the App Store